Satellite-Ground Cal/Val Region Overpasses Predictions

Prediction of Satellite NPP Overpassing Cal/Val Region: PacNW

Region Location: (Latitude: 10.00, Longitude: 139.50) to (Latitude: 22.70, Longitude: 165.60).

Table of predicted overpasses for the next 14.0 days since TLE Epoch: 10/22/2016
Interval Starting Time Starting Location Ending Time Ending Location
1 10/23/2016 02:33:36 ( 10.00, 161.44) 10/23/2016 02:37:12 ( 22.68, 158.43)
2 10/23/2016 15:05:30 ( 22.65, 158.65) 10/23/2016 15:09:05 ( 10.03, 155.65)
3 10/24/2016 02:15:19 ( 12.60, 165.60) 10/24/2016 02:18:11 ( 22.70, 163.18)
4 10/24/2016 03:56:05 ( 10.02, 140.82) 10/24/2016 03:57:41 ( 15.66, 139.51)
5 10/24/2016 14:46:28 ( 22.69, 163.42) 10/24/2016 14:50:04 ( 10.01, 160.41)
6 10/25/2016 03:37:03 ( 10.03, 145.57) 10/25/2016 03:40:38 ( 22.66, 142.57)
7 10/25/2016 14:30:30 ( 11.88, 165.59) 10/25/2016 14:31:01 ( 10.06, 165.17)
8 10/25/2016 16:08:56 ( 22.68, 142.79) 10/25/2016 16:12:31 ( 10.05, 139.80)
9 10/26/2016 03:18:02 ( 10.05, 150.32) 10/26/2016 03:21:37 ( 22.67, 147.32)
10 10/26/2016 15:49:55 ( 22.66, 147.54) 10/26/2016 15:53:30 ( 10.04, 144.55)
11 10/27/2016 02:58:59 ( 10.00, 155.09) 10/27/2016 03:02:35 ( 22.68, 152.07)
12 10/27/2016 15:30:53 ( 22.65, 152.30) 10/27/2016 15:34:28 ( 10.03, 149.30)
13 10/28/2016 02:39:58 ( 10.02, 159.84) 10/28/2016 02:43:34 ( 22.70, 156.83)
14 10/28/2016 15:11:51 ( 22.69, 157.06) 10/28/2016 15:15:27 ( 10.01, 154.05)
15 10/29/2016 02:20:56 ( 10.03, 164.59) 10/29/2016 02:24:31 ( 22.66, 161.59)
16 10/29/2016 14:52:49 ( 22.68, 161.81) 10/29/2016 14:56:24 ( 10.05, 158.81)
17 10/30/2016 03:43:25 ( 10.05, 143.96) 10/30/2016 03:47:00 ( 22.68, 140.97)
18 10/30/2016 14:34:55 ( 18.73, 165.60) 10/30/2016 14:37:23 ( 10.04, 163.57)
19 10/30/2016 16:15:18 ( 22.65, 141.19) 10/30/2016 16:17:16 ( 15.73, 139.51)
20 10/31/2016 03:24:22 ( 10.01, 148.73) 10/31/2016 03:27:58 ( 22.69, 145.72)
21 10/31/2016 15:56:15 ( 22.70, 145.95) 10/31/2016 15:59:51 ( 10.02, 142.94)
22 11/01/2016 03:05:21 ( 10.03, 153.48) 11/01/2016 03:08:56 ( 22.65, 150.48)
23 11/01/2016 15:37:14 ( 22.68, 150.70) 11/01/2016 15:40:50 ( 10.00, 147.69)
24 11/02/2016 02:46:20 ( 10.05, 158.23) 11/02/2016 02:49:55 ( 22.67, 155.23)
25 11/02/2016 15:18:12 ( 22.66, 155.45) 11/02/2016 15:21:47 ( 10.04, 152.46)
26 11/03/2016 02:27:17 ( 10.00, 163.00) 11/03/2016 02:30:53 ( 22.69, 159.98)
27 11/03/2016 14:59:11 ( 22.65, 160.21) 11/03/2016 15:02:46 ( 10.03, 157.21)
28 11/04/2016 02:10:53 ( 19.25, 165.59) 11/04/2016 02:11:51 ( 22.65, 164.75)
29 11/04/2016 03:49:46 ( 10.03, 142.37) 11/04/2016 03:53:12 ( 22.13, 139.50)
30 11/04/2016 14:40:08 ( 22.69, 164.97) 11/04/2016 14:43:44 ( 10.01, 161.96)
31 11/04/2016 16:21:38 ( 22.68, 139.59) 11/04/2016 16:21:44 ( 22.33, 139.51)
32 11/05/2016 03:30:44 ( 10.05, 147.12) 11/05/2016 03:34:19 ( 22.67, 144.12)


NCC Satellite Cal/Val Overpasses Prediction Service
